Estación municipal de Susqueda - St. Martí Sacalm (La Selva, )

Consulta los datos en tiempo real de la estación municipal de Susqueda - St. Martí Sacalm





Hora UTC 19:05
Temperatura 22.2 ºC
Humedad 64.5 %
Presión 1024.0 hPa
Pluja 0.0 mm
Velocidad viento 2.8 km/h
Dirección viento NE
Radiación solar 0.1 W/m²

Datos diarios 2026-09-02



Hora UTC (invierno +1h; verano +2h)
Temperatura (ºC) Humedad (%) Presión (hPa) Velocidad viento (km/h) Precipitación (mm) Radiación solar (W/m²)
Hora UTC Aire Humedad Presión Vel. Dir. Vel. Max Dir. Intent. máx 5 min. Rad. Sol.
00:05 21.2 71.9 1022.9 0.0 NNE 0.0 SW 0.0 0.1
00:10 21.3 70.8 1022.8 0.0 NNE 0.0 SW 0.0 0.1
00:15 21.4 70.1 1022.8 0.0 NNE 0.0 SW 0.0 0.1
00:20 21.4 70.4 1022.8 0.0 NNE 0.0 SW 0.0 0.1
00:25 21.4 71.1 1022.8 0.0 NNE 0.0 SW 0.0 0.1
00:30 21.3 71.1 1022.8 0.0 NNE 0.0 WSW 0.0 0.1
00:35 21.2 71.5 1022.8 0.0 NNE 0.0 SW 0.0 0.1
00:40 21.2 71.6 1022.9 0.0 NNE 0.0 SW 0.0 0.1
00:45 21.2 70.9 1022.9 0.0 NNE 0.0 SW 0.0 0.1
00:50 21.1 70.9 1022.8 0.0 NNE 0.0 SW 0.0 0.1
00:55 21.1 70.6 1022.8 1.0 SW 4.2 SW 0.0 0.1
01:00 21.1 70.4 1022.7 4.4 WSW 6.0 SW 0.0 0.1
01:05 21.1 70.3 1022.7 4.5 SW 5.7 SW 0.0 0.1
01:10 21.1 70.1 1022.7 3.6 SW 5.3 WSW 0.0 0.1
01:15 21.0 70.3 1022.7 3.2 SW 4.6 SW 0.0 0.1
01:20 20.9 71.2 1022.7 4.2 SW 5.0 SW 0.0 0.1
01:25 20.8 71.5 1022.6 3.9 SW 5.0 SW 0.0 0.1
01:30 20.8 71.9 1022.6 4.9 SSW 6.4 SSW 0.0 0.1
01:35 20.7 72.7 1022.6 5.6 SW 6.7 SW 0.0 0.1
01:40 20.4 73.7 1022.6 5.6 SW 6.7 SW 0.0 0.1
01:45 20.1 74.7 1022.6 6.4 SW 7.1 SW 0.0 0.1
01:50 19.9 74.9 1022.7 6.7 SW 7.4 SW 0.0 0.1
01:55 19.7 73.5 1022.6 6.0 SW 6.7 SW 0.0 0.1
02:00 19.7 71.6 1022.7 5.4 SW 6.4 SW 0.0 0.1
02:05 19.9 71.0 1022.6 5.5 SSW 7.1 SSW 0.0 0.1
02:10 20.1 70.5 1022.6 5.8 SSW 7.4 SSW 0.0 0.1
02:15 20.1 70.2 1022.6 6.3 SSW 7.4 SSW 0.0 0.1
02:20 20.0 70.8 1022.6 5.7 SW 7.4 SSW 0.0 0.1
02:25 19.9 70.4 1022.7 6.1 SW 9.2 WSW 0.0 0.1
02:30 19.9 70.5 1022.7 6.4 SW 7.8 SW 0.0 0.1
02:35 19.6 71.5 1022.6 5.7 SW 6.7 SSW 0.0 0.1
02:40 19.5 72.5 1022.6 5.8 SW 7.1 SSW 0.0 0.1
02:45 19.5 72.8 1022.6 5.9 SW 6.7 SW 0.0 0.1
02:50 19.5 72.9 1022.6 5.2 SSW 6.0 SW 0.0 0.1
02:55 19.4 72.9 1022.6 4.4 SSW 6.4 SSW 0.0 0.1
03:00 19.4 72.1 1022.6 6.8 SSW 8.1 SSW 0.0 0.1
03:05 19.4 71.7 1022.6 8.4 SW 9.5 SW 0.0 0.1
03:10 19.2 72.4 1022.5 8.6 SW 9.9 SW 0.0 0.1
03:15 18.9 74.1 1022.6 8.3 SW 9.9 SW 0.0 0.1
03:20 18.6 75.7 1022.6 9.0 SW 10.6 SW 0.0 0.1
03:25 18.5 77.0 1022.5 8.7 SW 10.3 SW 0.0 0.1
03:30 18.2 78.1 1022.6 8.8 SW 10.3 SW 0.0 0.1
03:35 18.1 77.7 1022.6 10.0 SW 11.7 SW 0.0 0.1
03:40 18.1 77.3 1022.7 8.7 SW 9.9 SW 0.0 0.1
03:45 18.2 80.1 1022.6 8.5 SSW 9.9 SSW 0.0 0.1
03:50 18.3 81.3 1022.6 8.2 SSW 10.3 SW 0.0 0.1
03:55 18.3 80.9 1022.6 6.6 SW 8.1 SW 0.0 0.1
04:00 18.6 78.8 1022.6 7.0 SW 8.1 SW 0.0 0.1
04:05 18.8 78.0 1022.6 6.5 SSW 8.1 SW 0.0 0.1
04:10 18.9 77.8 1022.6 7.1 SW 8.5 SW 0.0 0.1
04:15 19.0 77.5 1022.5 7.6 SW 8.5 SW 0.0 0.1
04:20 18.9 77.5 1022.5 7.1 SW 8.5 SW 0.0 0.1
04:25 18.7 77.8 1022.5 6.7 SW 8.1 SW 0.0 0.1
04:30 18.6 78.1 1022.5 6.5 SSW 7.8 SW 0.0 0.1
04:35 18.7 77.8 1022.5 6.3 SSW 7.1 SSW 0.0 0.1
04:40 18.8 77.2 1022.4 6.4 SW 6.7 SW 0.0 0.1
04:45 18.8 77.0 1022.5 5.5 SW 6.4 SW 0.0 0.1
04:50 18.8 77.3 1022.5 4.8 SW 5.3 SW 0.0 0.1
04:55 18.8 78.2 1022.5 6.0 SW 6.7 SW 0.0 0.3
05:00 18.7 79.1 1022.5 5.8 SW 6.7 SW 0.0 0.6
05:05 18.7 79.0 1022.5 5.6 SW 6.0 SW 0.0 1.3
05:10 18.8 77.6 1022.5 5.3 SW 5.7 SW 0.0 2.4
05:15 18.8 76.6 1022.6 5.1 SW 5.7 SSW 0.0 4.4
05:20 18.9 76.0 1022.6 5.0 SSW 5.7 SW 0.0 8.4
05:25 19.0 76.4 1022.7 5.2 SW 6.0 SW 0.0 14.1
05:30 19.0 76.7 1022.7 4.6 SW 5.0 SW 0.0 22.4
05:35 19.0 76.9 1022.8 4.4 SSW 7.1 SSW 0.0 32.7
05:40 19.3 74.6 1022.8 3.5 SW 5.0 SSW 0.0 44.9
05:45 19.8 73.9 1022.8 3.6 WSW 5.0 WSW 0.0 57.2
05:50 20.4 72.0 1022.7 3.2 WSW 4.6 WSW 0.0 68.5
05:55 20.6 70.9 1022.8 2.0 SW 4.6 SW 0.0 80.9
06:00 20.7 70.2 1022.9 0.0 NNE 0.0 S 0.0 95.1
06:05 20.9 69.7 1022.9 0.0 NNE 0.0 WSW 0.0 109.5
06:10 21.0 69.4 1023.0 0.0 NNE 0.0 SW 0.0 124.4
06:15 21.0 65.4 1023.1 0.0 NNE 0.0 WSW 0.0 140.1
06:20 21.2 66.2 1023.1 0.0 NNE 0.0 ESE 0.0 155.1
06:25 21.3 64.3 1023.1 2.8 ENE 7.4 ENE 0.0 171.1
06:30 21.5 60.3 1023.1 1.1 NE 5.7 NNE 0.0 186.6
06:35 21.7 59.4 1023.2 0.0 NNE 0.0 NE 0.0 202.6
06:40 21.9 57.6 1023.3 0.0 NNE 0.0 SE 0.0 218.7
06:45 22.1 56.3 1023.4 0.0 NNE 0.0 E 0.0 234.9
06:50 22.3 54.7 1023.4 0.0 NNE 0.0 NE 0.0 250.9
06:55 22.4 53.9 1023.4 0.0 NNE 0.0 WNW 0.0 266.7
07:00 22.7 53.0 1023.4 1.5 NE 5.7 NE 0.0 283.2
07:05 22.9 51.4 1023.4 1.5 NE 5.3 NNE 0.0 299.6
07:10 23.0 51.1 1023.4 0.0 NNE 0.0 NNE 0.0 315.1
07:15 23.1 49.9 1023.4 0.0 NNE 0.0 E 0.0 331.8
07:20 23.3 49.2 1023.5 1.8 NNE 6.7 NNE 0.0 347.6
07:25 23.4 48.9 1023.5 2.4 NNE 7.1 N 0.0 364.4
07:30 23.4 48.5 1023.5 2.0 N 6.4 NE 0.0 380.4
07:35 23.3 52.9 1023.5 0.3 NE 4.2 NNE 0.0 396.9
07:40 23.0 55.2 1023.6 0.0 NNE 0.0 SW 0.0 412.5
07:45 23.3 50.6 1023.6 1.1 E 5.0 E 0.0 427.9
07:50 23.7 48.6 1023.6 0.2 S 4.6 SSE 0.0 443.0
07:55 23.9 48.3 1023.6 3.2 NNE 10.3 NNE 0.0 451.0
08:00 23.9 46.6 1023.7 6.2 NNE 9.5 NE 0.0 470.8
08:05 23.9 48.6 1023.7 5.3 NNE 11.0 N 0.0 483.3
08:10 24.1 48.1 1023.7 5.9 NNE 10.3 NNE 0.0 497.2
08:15 24.1 47.9 1023.8 6.0 NNE 10.6 N 0.0 511.4
08:20 24.2 47.5 1023.8 5.9 NNE 11.7 NNE 0.0 526.2
08:25 24.5 46.6 1023.8 6.6 NNE 11.0 NNE 0.0 540.5
08:30 24.5 45.6 1023.9 4.2 NNE 9.2 NNE 0.0 553.9
08:35 24.5 45.2 1023.9 5.2 NNE 11.0 NNE 0.0 567.0
08:40 24.8 45.2 1024.0 2.9 NNE 11.0 NNE 0.0 580.4
08:45 25.0 44.6 1024.0 4.5 NNE 10.6 NNE 0.0 593.3
08:50 25.5 43.9 1024.0 3.3 ENE 8.8 ENE 0.0 606.6
08:55 25.8 43.1 1024.0 3.9 ENE 8.1 ENE 0.0 619.1
09:00 26.4 44.4 1024.0 2.2 ESE 6.7 WSW 0.0 630.6
09:05 26.0 47.0 1024.1 2.5 SSW 9.2 SSE 0.0 641.5
09:10 25.7 47.4 1024.2 1.4 SSE 7.4 SSE 0.0 652.8
09:15 25.8 46.0 1024.3 2.7 NE 11.7 NNE 0.0 664.3
09:20 25.8 46.0 1024.3 6.5 NE 14.1 ENE 0.0 675.9
09:25 26.0 45.0 1024.3 8.8 NE 19.8 NNE 0.0 686.2
09:30 25.8 45.3 1024.3 5.4 NE 13.4 E 0.0 700.6
09:35 26.4 43.7 1024.3 6.8 NE 13.8 NNE 0.0 594.1
09:40 26.1 43.9 1024.3 7.0 NNE 13.1 N 0.0 703.7
09:45 26.3 44.1 1024.3 8.4 ENE 17.3 E 0.0 705.3
09:50 26.5 43.6 1024.3 5.3 NNE 12.4 NNE 0.0 730.9
09:55 26.2 44.7 1024.4 7.8 NE 13.4 NE 0.0 743.4
10:00 26.6 44.2 1024.4 4.4 NE 12.0 NE 0.0 742.9
10:05 26.9 44.7 1024.3 5.1 NE 11.3 ENE 0.0 752.9
10:10 26.9 45.8 1024.3 7.7 NE 19.4 NNE 0.0 748.7
10:15 26.7 45.6 1024.3 11.6 ENE 18.0 ENE 0.0 748.1
10:20 27.0 44.9 1024.2 5.8 NE 14.8 NNE 0.0 767.4
10:25 27.0 44.6 1024.2 11.2 NE 20.5 NE 0.0 777.2
10:30 27.2 44.2 1024.2 7.5 ENE 18.7 ENE 0.0 797.6
10:35 27.4 43.8 1024.2 5.3 NNE 13.4 N 0.0 790.8
10:40 27.6 43.4 1024.2 5.3 NNE 14.5 WNW 0.0 797.6
10:45 27.7 43.1 1024.2 4.7 NNE 15.2 N 0.0 809.0
10:50 27.6 42.8 1024.2 1.6 SW 8.5 NNE 0.0 808.0
10:55 27.8 42.0 1024.2 2.2 NNW 11.0 W 0.0 818.0
11:00 28.1 40.9 1024.1 4.1 SSW 13.4 SW 0.0 822.0
11:05 28.6 40.0 1024.1 2.9 ESE 11.0 E 0.0 826.0
11:10 29.3 38.2 1024.1 4.9 ESE 13.1 ENE 0.0 771.7
11:15 29.4 38.1 1024.1 4.4 SSE 12.4 SE 0.0 827.0
11:20 29.0 38.9 1024.1 2.0 S 9.2 SW 0.0 833.0
11:25 29.0 39.2 1024.0 4.2 SSE 10.3 SSE 0.0 806.0
11:30 29.5 38.4 1024.0 4.2 S 16.6 S 0.0 825.0
11:35 29.1 39.0 1024.0 10.3 S 21.5 SSE 0.0 827.0
11:40 28.5 40.0 1023.9 10.3 S 20.5 S 0.0 831.0
11:45 28.6 40.1 1023.9 10.1 SSE 26.5 SSE 0.0 808.0
11:50 28.4 40.5 1023.9 9.9 SSE 28.2 SE 0.0 827.0
11:55 29.2 39.2 1023.9 8.8 SSE 18.0 SE 0.0 826.0
12:00 29.3 38.8 1023.9 7.9 SSE 18.0 ESE 0.0 824.0
12:05 28.8 39.3 1023.9 13.2 ESE 25.4 ESE 0.0 823.0
12:10 29.3 38.7 1023.8 11.9 SE 27.2 SSE 0.0 819.0
12:15 28.8 39.1 1023.8 14.7 SSE 28.6 SE 0.0 817.0
12:20 28.7 39.4 1023.9 9.1 SE 18.4 ESE 0.0 812.0
12:25 28.9 39.2 1023.8 9.0 SSE 24.7 SSE 0.0 810.0
12:30 29.4 38.1 1023.8 6.7 SSE 16.2 SSE 0.0 806.0
12:35 29.3 38.0 1023.8 8.6 S 25.1 SSE 0.0 772.2
12:40 29.0 38.2 1023.8 13.7 SSE 23.0 SE 0.0 794.7
12:45 28.8 38.7 1023.8 9.8 SE 21.5 SSE 0.0 789.6
12:50 29.1 37.8 1023.7 13.4 SE 30.0 SE 0.0 786.3
12:55 29.1 37.9 1023.7 9.9 SE 21.2 SSE 0.0 778.2
13:00 29.5 37.7 1023.6 6.0 SE 17.0 S 0.0 775.0
13:05 29.7 38.1 1023.6 11.0 SSE 24.7 E 0.0 765.1
13:10 30.1 39.0 1023.6 11.9 SSE 26.8 SSE 0.0 756.0
13:15 29.0 41.2 1023.6 12.2 SE 21.5 ESE 0.0 748.7
13:20 28.8 43.0 1023.6 13.8 SE 24.7 ESE 0.0 724.6
13:25 29.0 43.6 1023.6 11.0 SE 20.8 SSE 0.0 737.3
13:30 28.9 44.4 1023.6 9.1 SSE 25.4 SSE 0.0 752.7
13:35 29.3 44.0 1023.5 11.3 SE 23.3 SSE 0.0 727.6
13:40 29.2 45.3 1023.5 12.7 SE 23.7 SSE 0.0 732.1
13:45 28.7 46.9 1023.5 11.8 SE 29.3 ESE 0.0 711.8
13:50 29.0 46.7 1023.5 10.6 SSE 20.5 S 0.0 694.1
13:55 28.6 48.5 1023.5 11.5 SSE 23.7 SE 0.0 681.0
14:00 28.5 47.2 1023.5 8.3 SSE 21.9 SE 0.0 670.5
14:05 28.4 46.4 1023.5 11.6 SSE 24.4 SSE 0.0 658.7
14:10 28.5 46.7 1023.6 8.7 SSE 19.1 SSE 0.0 544.8
14:15 28.8 47.7 1023.6 9.8 ESE 20.1 ENE 0.0 643.0
14:20 29.2 46.7 1023.5 10.5 SE 21.5 SSE 0.0 631.4
14:25 28.7 47.8 1023.5 10.6 ESE 23.0 SE 0.0 625.4
14:30 28.4 50.0 1023.4 9.2 SSE 24.0 SE 0.0 616.8
14:35 28.5 49.3 1023.4 6.3 E 16.6 ENE 0.0 608.7
14:40 29.3 47.7 1023.4 5.5 ESE 15.5 SSE 0.0 596.5
14:45 29.6 46.6 1023.4 7.0 NE 18.0 ENE 0.0 581.9
14:50 29.4 47.1 1023.4 8.3 E 17.7 SE 0.0 571.7
14:55 28.9 48.0 1023.4 6.6 ENE 14.1 NNE 0.0 552.2
15:00 28.8 47.9 1023.4 11.5 E 20.1 ESE 0.0 533.8
15:05 28.6 48.0 1023.4 9.2 ENE 21.5 ENE 0.0 517.6
15:10 28.1 49.2 1023.4 8.1 ENE 16.2 ENE 0.0 501.9
15:15 27.9 49.6 1023.4 4.8 NE 17.3 NNE 0.0 488.6
15:20 27.9 49.5 1023.4 12.3 ENE 20.1 ENE 0.0 466.8
15:25 27.6 50.2 1023.4 11.4 ENE 19.4 ENE 0.0 457.4
15:30 27.4 50.7 1023.4 11.5 ENE 24.7 E 0.0 446.4
15:35 27.2 51.1 1023.4 13.4 ENE 23.0 ENE 0.0 431.5
15:40 26.8 52.2 1023.4 15.6 ENE 25.1 ENE 0.0 418.4
15:45 26.7 52.6 1023.4 13.4 ENE 25.8 ENE 0.0 403.1
15:50 26.5 53.2 1023.5 11.5 NE 20.8 ENE 0.0 395.6
15:55 26.5 53.0 1023.5 13.8 ENE 24.0 ENE 0.0 384.7
16:00 26.8 52.6 1023.5 9.9 ENE 21.9 ENE 0.0 370.1
16:05 26.7 52.8 1023.5 10.0 NE 18.7 E 0.0 352.3
16:10 26.8 52.3 1023.5 7.5 ENE 16.2 NNE 0.0 335.3
16:15 26.7 52.4 1023.5 9.8 NE 17.0 NE 0.0 323.3
16:20 26.7 52.5 1023.5 8.6 ENE 17.7 NE 0.0 310.1
16:25 27.1 51.4 1023.5 10.2 ENE 15.2 ENE 0.0 297.0
16:30 27.0 51.5 1023.5 7.2 NNE 14.5 ENE 0.0 282.7
16:35 26.5 52.9 1023.4 2.6 NE 9.9 NNE 0.0 242.8
16:40 26.9 51.8 1023.5 4.4 NE 9.2 ESE 0.0 204.4
16:45 26.1 53.9 1023.5 4.6 N 9.9 N 0.0 205.8
16:50 25.7 55.0 1023.5 6.6 NE 12.7 NE 0.0 204.6
16:55 25.5 55.4 1023.5 6.6 N 11.7 N 0.0 187.8
17:00 25.1 56.5 1023.5 7.5 NNE 12.0 NE 0.0 181.0
17:05 25.0 56.8 1023.5 6.6 NNE 13.1 NNE 0.0 173.7
17:10 24.8 57.3 1023.5 7.5 NNE 13.8 NE 0.0 158.3
17:15 24.5 57.9 1023.5 7.6 NNE 10.6 N 0.0 144.4
17:20 24.3 58.5 1023.5 6.8 NNE 10.6 N 0.0 129.2
17:25 24.2 58.9 1023.5 7.1 NNE 11.7 NNE 0.0 112.2
17:30 24.1 59.2 1023.5 7.4 NNE 12.7 NNE 0.0 96.0
17:35 23.9 59.7 1023.6 7.1 NNE 11.0 NNE 0.0 74.6
17:40 23.7 60.5 1023.6 6.6 NNE 9.9 NNE 0.0 61.9
17:45 23.3 61.4 1023.6 6.1 NNE 8.5 NNE 0.0 44.7
17:50 23.1 62.1 1023.5 6.8 NNE 9.5 NNE 0.0 37.2
17:55 22.9 62.5 1023.6 7.0 NNE 9.2 NNE 0.0 30.5
18:00 22.9 62.7 1023.6 7.0 NNE 11.3 NNE 0.0 24.2
18:05 22.8 62.8 1023.6 7.0 NNE 10.3 NNE 0.0 20.4
18:10 22.7 63.3 1023.6 5.9 NNE 9.2 N 0.0 16.3
18:15 22.5 63.8 1023.6 5.2 NNE 8.1 ENE 0.0 11.5
18:20 22.4 64.3 1023.6 4.8 NNE 7.4 NE 0.0 7.2
18:25 22.2 64.8 1023.6 5.8 NNE 8.1 NNE 0.0 5.4
18:30 22.2 65.0 1023.7 5.2 NNE 7.8 NNE 0.0 3.6
18:35 22.2 65.0 1023.8 4.9 NNE 6.7 NE 0.0 1.9
18:40 22.2 64.9 1023.8 6.2 N 9.2 N 0.0 0.7
18:45 22.2 64.6 1023.8 5.4 NNE 9.2 N 0.0 0.3
18:50 22.4 64.1 1023.9 2.7 NE 6.0 NE 0.0 0.1
18:55 22.3 64.2 1023.9 5.2 NNE 7.1 N 0.0 0.1
19:00 22.4 64.0 1024.0 3.9 NE 6.7 NE 0.0 0.1
19:05 22.2 64.5 1024.0 2.8 NE 6.4 ENE 0.0 0.1
Máxima 30.1 81.3 1024.4 15.6 ENE 30.0 SE 0.0 833.0
Mínima 18.1 37.7 1022.4
Total 0.0